User: anonymous   Login
Location: Caltech
(34.1382°N, 118.1253°W)
Time: 01:57:14
(UTC-07:00)
Language:

AO-27 - Orbit

View from above orbital plane
View from above orbital plane
View from above satellite
View from above satellite

Ground track
Ground track

The orbit data is extracted from the following two-line orbital elements,

1 22825U 93061C   17142.86358260 -.00000001 +00000-0 +17377-4 0  9992
2 22825 098.8101 108.1367 0009302 050.3057 309.8943 14.29996155233519
Epoch (UTC): 22 May 2017 20:43:33
Eccentricity: 0.0009302
inclination: 98.8101°
perigee height: 785 km
apogee height: 798 km
right ascension of ascending node: 108.1367°
argument of perigee: 50.3057°
revolutions per day: 14.29996155
mean anomaly at epoch: 309.8943°
orbit number at epoch: 23351

The dashed part of the orbit path shows where the satellite is in the earth's shadow,  

DLR